User: anonymous   Login
Location: Brahman Valley
(40.6513°N, 111.8855°W)
Time: 13:24:23
(UTC+00:00)
Language:

PSLV DEB - Orbit

View from above orbital plane
View from above orbital plane
View from above satellite
View from above satellite

Ground track
Ground track

The orbit data is extracted from the following two-line orbital elements,

1 27126U 01049BW  21266.86604391  .00001274  00000-0  13374-3 0  9991
2 27126  98.2289 231.8231 0041062 168.7854 253.2577 14.90853209 68253
Epoch (UTC): 23 September 2021 20:47:06
Eccentricity: 0.0041062
inclination: 98.2289°
perigee height: 566 km
apogee height: 624 km
right ascension of ascending node: 231.8231°
argument of perigee: 168.7854°
revolutions per day: 14.90853209
mean anomaly at epoch: 253.2577°
orbit number at epoch: 6825

The dashed part of the orbit path shows where the satellite is in the earth's shadow,  

DLR